Flag for Hungary Weather past 2 weeks in Budapest, Hungary

Now
55 °F

Passing clouds.


Feels Like: 52 °F
Forecast: 40 / 63 °F
Wind: 12 mph from West

Location: Ferenc Liszt International Airport

Current Time: Sep 23, 2014 at 7:26:32 PM

Latest Report: Sep 23, 2014 at 7:00 PM


Visibility: N/A

Pressure: 30.01 "Hg

Humidity: 67%

Dew point: 45 °F

Location of BudapestLocation

Historic Weather in Budapest — Graph

°F

Budapest temperature yesterday

Maximum temperature yesterday: 64 °F (at 1:30 PM)
Minimum temperature yesterday: 54 °F (at 8:30 PM)
Average temperature yesterday: 60 °F

Past Weeks' High & Low Weather Summary

 TemperatureHumidityPressure
High79 °F (Sep 9, 2:30 PM)100% (Sep 9, 1:00 AM)30.15 "Hg (Sep 9, 1:00 AM)
Low46 °F (Sep 23, 6:30 AM)44% (Sep 18, 5:00 PM)29.77 "Hg (Sep 22, 4:00 AM)
Average63 °F85%29.99 "Hg
* Reported Sep 8 6:00 PM — Sep 23 6:30 PM, Budapest, Weather by CustomWeather, © 2014

Note: Actual official high and low records may vary slightly from our data, if they occured in-between our weather recording intervals... More about our weather records

Advertising

Budapest weather history for previous 24 hours

 ConditionsComfort  
Time TempWeatherWind HumidityBarometerVisibility
6:30 PM
Sep 23
55 °FScattered clouds.14 mph67%30.01 "HgN/A
6:00 PM57 °FScattered clouds.17 mph59%29.98 "HgN/A
5:30 PM59 °FScattered clouds.22 mph55%29.98 "HgN/A
5:00 PM61 °FScattered clouds.21 mph52%29.98 "HgN/A
4:30 PM61 °FScattered clouds.25 mph52%29.98 "HgN/A
4:00 PM61 °FScattered clouds.18 mph55%29.98 "HgN/A
3:30 PM61 °FBroken clouds.17 mph59%29.98 "HgN/A
3:00 PM61 °FBroken clouds.21 mph55%29.98 "HgN/A
2:30 PM59 °FBroken clouds.24 mph59%29.98 "HgN/A
2:00 PM59 °FBroken clouds.17 mph59%29.95 "HgN/A
1:30 PM59 °FBroken clouds.17 mph59%29.95 "HgN/A
1:00 PM59 °FBroken clouds.15 mph59%29.95 "HgN/A
12:30 PM59 °FScattered clouds.20 mph59%29.95 "HgN/A
12:00 PM59 °FScattered clouds.22 mph55%29.95 "HgN/A
11:30 AM59 °FScattered clouds.21 mph59%29.95 "HgN/A
11:00 AM57 °FScattered clouds.20 mph59%29.95 "HgN/A
10:30 AM57 °FPassing clouds.18 mph59%29.95 "HgN/A
10:00 AM55 °FPassing clouds.20 mph59%29.92 "HgN/A
9:30 AM54 °FPassing clouds.18 mph63%29.92 "HgN/A
9:00 AM54 °FPassing clouds.17 mph67%29.89 "HgN/A
8:30 AM50 °FPassing clouds.17 mph76%29.89 "HgN/A
8:00 AM50 °FScattered clouds.18 mph76%29.89 "HgN/A
7:30 AM48 °FPassing clouds.18 mph82%29.86 "HgN/A
7:00 AM46 °FClear.15 mph87%29.86 "Hg10 mi
6:30 AM46 °FClear.13 mph87%29.86 "Hg10 mi
6:00 AM48 °FClear.13 mph82%29.86 "Hg10 mi
5:30 AM48 °FClear.16 mph82%29.86 "Hg10 mi
5:00 AM48 °FClear.14 mph87%29.86 "Hg10 mi
4:30 AM50 °FClear.16 mph82%29.86 "Hg10 mi
4:00 AM50 °FClear.16 mph82%29.86 "Hg10 mi
3:30 AM50 °FClear.16 mph82%29.83 "Hg10 mi
3:00 AM50 °FClear.16 mph82%29.83 "Hg10 mi
2:30 AM52 °FClear.14 mph82%29.83 "Hg10 mi
2:00 AM52 °FClear.15 mph82%29.86 "Hg10 mi
1:30 AM52 °FClear.15 mph82%29.86 "Hg10 mi
1:00 AM54 °FClear.16 mph77%29.86 "Hg10 mi
12:30 AM54 °FClear.12 mph77%29.89 "Hg10 mi
12:00 AM52 °FPassing clouds.6 mph77%29.86 "HgN/A
11:30 PM
Sep 22
54 °FClear.12 mph77%29.89 "Hg10 mi
11:00 PM54 °FClear.12 mph77%29.89 "Hg10 mi
10:30 PM54 °FClear.12 mph72%29.89 "Hg10 mi
10:00 PM55 °FClear.12 mph67%29.86 "Hg10 mi
9:30 PM55 °FClear.13 mph67%29.86 "Hg10 mi
9:00 PM54 °FClear.12 mph72%29.86 "Hg10 mi
8:30 PM54 °FClear.9 mph72%29.83 "Hg10 mi
8:00 PM55 °FPassing clouds.9 mph67%29.83 "HgN/A
7:30 PM59 °FSunny.14 mph59%29.83 "Hg10 mi
7:00 PM57 °FSunny.8 mph63%29.83 "Hg10 mi
Weather by CustomWeather, © 2014

See weather overviewHow to use our weather pages